CW4629 Weather Reports


time (UTC)temp
C
wind
direction
speed
KPH
gust
KPH
rain 1hr
cm
rain 24hr
cm
rain mn
cm
humidity
%
barometer
mb
20260506093814 17 311 3.2 6.4 0.00 0.00 0.00 30 1015.1
20260506092729 17 311 8.0 12.9 0.00 0.00 0.00 29 1014.9
20260506091814 17 357 4.8 9.7 0.00 0.00 0.00 29 1014.9
20260506090816 17 314 3.2 8.0 0.00 0.00 0.00 28 1014.7
20260506085816 17 315 0.0 3.2 0.00 0.00 0.00 29 1014.7
20260506084915 17 325 4.8 8.0 0.00 0.00 0.00 28 1014.7
20260506082116 17 2 4.8 6.4 0.00 0.00 0.00 28 1014.5
20260506082014 17 311 3.2 8.0 0.00 0.00 0.00 28 1014.5
20260506081032 18 309 8.0 11.3 0.00 0.00 0.00 28 1014.4
20260506073215 17 292 4.8 8.0 0.00 0.00 0.00 28 1014.3
20260506072229 17 292 0.0 0.0 0.00 0.00 0.00 30 1014.4
20260506071215 17 247 0.0 0.0 0.00 0.00 0.00 29 1014.5
20260506070215 18 247 0.0 0.0 0.00 0.00 0.00 27 1014.2
20260506062229 18 359 0.0 1.6 0.00 0.00 0.00 26 1014.0
20260506050533 18 292 0.0 0.0 0.00 0.00 0.00 24 1013.3
20260506044533 18 292 0.0 1.6 0.00 0.00 0.00 24 1013.1
20260506043531 18 292 0.0 0.0 0.00 0.00 0.00 22 1012.9
20260506043416 19 292 0.0 0.0 0.00 0.00 0.00 22 1013.0
20260506042431 19 292 0.0 1.6 0.00 0.00 0.00 22 1012.8
20260506040517 20 270 3.2 4.8 0.00 0.00 0.00 21 1012.5
20260506035531 19 276 8.0 11.3 0.00 0.00 0.00 21 1012.5
20260506034616 19 270 1.6 4.8 0.00 0.00 0.00 21 1012.2
20260506033618 19 247 0.0 0.0 0.00 0.00 0.00 21 1012.1
20260506032632 20 247 0.0 0.0 0.00 0.00 0.00 20 1011.9
20260506031715 20 250 0.0 4.8 0.00 0.00 0.00 20 1011.8
20260506030715 20 231 6.4 17.7 0.00 0.00 0.00 20 1011.5
20260506025732 20 248 8.0 11.3 0.00 0.00 0.00 19 1011.5
20260506025616 20 257 8.0 11.3 0.00 0.00 0.00 19 1011.4
20260506024615 20 227 8.0 14.5 0.00 0.00 0.00 19 1011.1
20260506023618 20 228 9.7 16.1 0.00 0.00 0.00 20 1011.1
20260506022616 20 226 14.5 22.5 0.00 0.00 0.00 21 1010.9
20260506021616 21 231 11.3 17.7 0.00 0.00 0.00 21 1010.6
20260506020616 21 216 14.5 24.1 0.00 0.00 0.00 20 1010.4
20260506020516 21 232 9.7 14.5 0.00 0.00 0.00 20 1010.4
20260506014632 21 219 11.3 16.1 0.00 0.00 0.00 19 1010.2
20260506013632 22 225 12.9 19.3 0.00 0.00 0.00 19 1010.1
20260506011815 22 231 17.7 25.7 0.00 0.00 0.00 17 1009.9
20260506010816 22 219 12.9 16.1 0.00 0.00 0.00 19 1010.0
20260506004814 22 236 14.5 24.1 0.00 0.00 0.00 18 1009.9
20260506003817 22 222 12.9 22.5 0.00 0.00 0.00 19 1009.9
20260506002830 22 204 14.5 22.5 0.00 0.00 0.00 19 1009.9
20260506001817 22 214 11.3 16.1 0.00 0.00 0.00 19 1009.8
20260505235915 22 231 12.9 19.3 0.00 0.00 0.00 19 1009.8
20260505234917 22 238 16.1 22.5 0.00 0.00 0.00 18 1009.8
20260505233915 22 262 9.7 16.1 0.00 0.00 0.00 18 1009.8
20260505230931 22 274 12.9 19.3 0.00 0.00 0.00 20 1009.8
20260505230015 22 303 9.7 12.9 0.00 0.00 0.00 20 1009.9
20260505225016 22 215 6.4 9.7 0.00 0.00 0.00 20 1010.0
20260505224015 23 267 12.9 22.5 0.00 0.00 0.00 20 1010.1
20260505223034 22 239 11.3 17.7 0.00 0.00 0.00 20 1010.1
20260505221116 22 281 6.4 11.3 0.00 0.00 0.00 20 1010.3
20260505220133 23 112 4.8 8.0 0.00 0.00 0.00 21 1010.4
20260505215116 23 232 14.5 22.5 0.00 0.00 0.00 20 1010.6
20260505214115 23 121 4.8 8.0 0.00 0.00 0.00 21 1010.7
20260505213115 23 171 11.3 16.1 0.00 0.00 0.00 21 1010.8
20260505212115 23 205 17.7 29.0 0.00 0.00 0.00 21 1010.8
20260505211132 22 206 8.0 11.3 0.00 0.00 0.00 22 1011.1
20260505210130 22 312 3.2 6.4 0.00 0.00 0.00 22 1011.3
20260505205116 22 355 3.2 6.4 0.00 0.00 0.00 23 1011.4
20260505204114 22 246 4.8 9.7 0.00 0.00 0.00 24 1011.6
20260505202131 21 13 4.8 8.0 0.00 0.00 0.00 25 1011.7
20260505201215 20 253 4.8 9.7 0.00 0.00 0.00 26 1012.0
20260505200315 21 327 6.4 12.9 0.00 0.00 0.00 26 1012.0
20260505195331 21 224 4.8 8.0 0.00 0.00 0.00 25 1012.0
20260505194316 21 64 6.4 8.0 0.00 0.00 0.00 24 1012.0
20260505193330 22 204 11.3 17.7 0.00 0.00 0.00 23 1012.0
20260505192414 22 349 3.2 6.4 0.00 0.00 0.00 24 1012.2
20260505191417 21 67 6.4 11.3 0.00 0.00 0.00 24 1012.1
20260505185416 21 323 1.6 6.4 0.00 0.00 0.00 25 1012.4
20260505183516 21 271 1.6 8.0 0.00 0.00 0.00 25 1012.7
20260505182515 21 56 1.6 6.4 0.00 0.00 0.00 25 1012.5
20260505181517 21 46 8.0 11.3 0.00 0.00 0.00 25 1012.5
20260505180417 21 347 0.0 3.2 0.00 0.00 0.00 26 1012.8
20260505175430 20 160 1.6 6.4 0.00 0.00 0.00 26 1012.7
20260505175329 20 143 4.8 9.7 0.00 0.00 0.00 26 1012.8
20260505175230 20 112 4.8 6.4 0.00 0.00 0.00 25 1012.7
20260505174315 20 103 6.4 9.7 0.00 0.00 0.00 26 1012.9
20260505173414 21 82 1.6 4.8 0.00 0.00 0.00 26 1013.1
20260505172415 19 224 0.0 3.2 0.00 0.00 0.00 28 1013.1
20260505171514 20 272 4.8 8.0 0.00 0.00 0.00 27 1013.1
20260505165514 20 297 6.4 8.0 0.00 0.00 0.00 27 1013.2
20260505164516 20 157 1.6 4.8 0.00 0.00 0.00 27 1013.1
20260505162530 18 111 3.2 6.4 0.00 0.00 0.00 27 1013.3
20260505161616 18 337 0.0 4.8 0.00 0.00 0.00 26 1013.4
20260505160614 18 71 3.2 8.0 0.00 0.00 0.00 27 1013.4
20260505152715 17 93 1.6 6.4 0.00 0.00 0.00 27 1013.7
20260505150830 17 180 0.0 3.2 0.00 0.00 0.00 29 1013.8
20260505140114 13 202 0.0 1.6 0.00 0.00 0.00 44 1013.8
20260505124516 8 360 4.8 9.7 0.00 0.00 0.00 55 1013.0
20260505123430 8 22 0.0 0.0 0.00 0.00 0.00 54 1012.8
20260505122516 9 22 0.0 0.0 0.00 0.00 0.00 53 1012.9
20260505121615 9 22 0.0 0.0 0.00 0.00 0.00 50 1012.8
20260505120615 9 22 0.0 0.0 0.00 0.00 0.00 50 1012.8
20260505115614 9 360 8.0 9.7 0.00 0.00 0.00 52 1012.7
20260505114614 10 22 6.4 8.0 0.00 0.00 0.00 51 1012.8
20260505113630 10 22 0.0 1.6 0.00 0.00 0.00 51 1012.8
20260505112714 9 22 1.6 4.8 0.00 0.00 0.00 50 1012.8
20260505112631 9 22 0.0 3.2 0.00 0.00 0.00 51 1012.9
20260505111713 10 1 1.6 4.8 0.00 0.00 0.00 50 1012.8
20260505110731 10 270 3.2 6.4 0.00 0.00 0.00 50 1012.6
20260505101814 10 135 0.0 0.0 0.00 0.00 0.00 46 1012.6
20260505100831 10 202 0.0 0.0 0.00 0.00 0.00 45 1012.4
20260505095913 11 202 0.0 0.0 0.00 0.00 0.00 45 1012.5